Weather History for KBIV - February, 2014

Change the Weather History Date:

Saturday, February 8, 2014

  Actual Average Record
Temperature  
Mean Temperature 14 °F 27 °F  
Max Temperature 18 °F 33 °F 47 °F (1987)
Min Temperature 10 °F 20 °F -13 °F (1978)
Degree Days  
Heating Degree Days 51 38  
Month to date heating degree days 399 309  
Since 1 July heating degree days 4235 3783  
Cooling Degree Days 0 0  
Month to date cooling degree days 0 0  
Year to date cooling degree days 0 0  
Moisture  
Dew Point 9 °F    
Average Humidity 78    
Maximum Humidity 88    
Minimum Humidity 67    
Precipitation  
Precipitation 0.05 in 0.06 in 0.55 in (2001)
Month to date precipitation 0.43 0.41  
Year to date precipitation 2.72 2.50  
Sea Level Pressure  
Sea Level Pressure 30.24 in    
Wind  
Wind Speed 7 mph (SSW)    
Max Wind Speed 15 mph    
Max Gust Speed 19 mph    
Visibility 5 miles    
Events Snow    
T = Trace of Precipitation, MM = Missing Value Source: NWS Daily Summary

Daily Weather History Graph

Daily Weather History Graph

Search for Another Location

Airport or City:

Trip Planner

Search our weather history database for the weather conditions in past years. The results will help you decide how hot, cold, wet, or windy it might be!

Date:

Astronomy

Feb. 08, 2014 Rise Set
Actual Time 7:50 AM EST 6:06 PM EST
Civil Twilight 7:21 AM EST 6:36 PM EST
Nautical Twilight 6:47 AM EST 7:09 PM EST
Astronomical Twilight 6:14 AM EST 7:42 PM EST
Moon 12:58 PM EST (2/8) 3:04 AM EST (2/8)
Length of Visible Light 11h 15m
Length of Day
10h 16m
Waxing Gibbous, 68% of the Moon is Illuminated
Feb 8
Waxing Gibbous
Feb 14
Full
Feb 22
Last Quarter
Mar 1
New
Mar 8
First Quarter

Hourly Weather History & Observations

Time (EST) Temp. Windchill Dew Point Humidity Pressure Visibility Wind Dir Wind Speed Gust Speed Precip Events Conditions
12:53 AM 10.9 °F -0.8 °F 6.1 °F 81% 30.33 in 10.0 mi South 8.1 mph - N/A   Overcast
1:53 AM 16.0 °F 2.9 °F 7.0 °F 68% 30.32 in 10.0 mi West 11.5 mph 18.4 mph N/A   Overcast
2:53 AM 16.0 °F 3.6 °F 7.0 °F 68% 30.32 in 10.0 mi West 10.4 mph - N/A   Overcast
3:53 AM 16.0 °F 4.4 °F 7.0 °F 68% 30.31 in 10.0 mi West 9.2 mph - N/A   Overcast
4:53 AM 16.0 °F 4.4 °F 8.1 °F 71% 30.31 in 10.0 mi West 9.2 mph - N/A   Overcast
5:53 AM 10.9 °F 1.4 °F 6.1 °F 81% 30.31 in 10.0 mi South 5.8 mph - N/A   Overcast
6:53 AM 12.0 °F 1.5 °F 7.0 °F 80% 30.30 in 10.0 mi South 6.9 mph - N/A   Overcast
7:53 AM 12.0 °F 0.5 °F 7.0 °F 80% 30.30 in 6.0 mi South 8.1 mph - 0.00 in   Haze
8:20 AM 12.0 °F 0.5 °F 8.1 °F 84% 30.26 in 1.8 mi South 8.1 mph - 0.00 in Snow Light Snow
8:42 AM 10.9 °F -0.8 °F 8.1 °F 88% 30.26 in 1.0 mi South 8.1 mph - 0.00 in Snow Light Snow
8:53 AM 10.9 °F -0.8 °F 8.1 °F 88% 30.31 in 1.2 mi South 8.1 mph - 0.00 in Snow Light Snow
9:00 AM 10.9 °F -1.8 °F 8.1 °F 88% 30.26 in 1.5 mi South 9.2 mph - 0.00 in Snow Light Snow
9:14 AM 10.9 °F 0.2 °F 8.1 °F 88% 30.26 in 1.2 mi South 6.9 mph - 0.00 in Snow Light Snow
9:37 AM 12.0 °F 0.5 °F 9.0 °F 88% 30.26 in 0.8 mi South 8.1 mph - 0.01 in Snow Light Snow
9:53 AM 12.0 °F 1.5 °F 9.0 °F 88% 30.31 in 0.8 mi South 6.9 mph - 0.01 in Snow Light Snow
10:02 AM 12.9 °F 0.7 °F 9.0 °F 84% 30.26 in 1.0 mi South 9.2 mph - 0.00 in Snow Light Snow
10:22 AM 12.9 °F 2.6 °F 10.0 °F 88% 30.26 in 1.5 mi South 6.9 mph - 0.00 in Snow Light Snow
10:46 AM 14.0 °F 3.9 °F 10.0 °F 84% 30.25 in 2.5 mi South 6.9 mph - 0.00 in Snow Light Snow
10:53 AM 14.0 °F 2.9 °F 10.0 °F 84% 30.30 in 2.5 mi South 8.1 mph - 0.00 in Snow Light Snow
11:11 AM 15.1 °F 5.2 °F 10.0 °F 80% 30.25 in 4.0 mi South 6.9 mph - 0.00 in Snow Light Snow
11:53 AM 16.0 °F 7.4 °F 10.9 °F 81% 30.29 in 8.0 mi South 5.8 mph - 0.00 in   Overcast
12:31 PM 17.1 °F 3.0 °F 10.0 °F 74% 30.24 in 6.0 mi SSW 13.8 mph - 0.00 in Snow Light Snow
12:53 PM 17.1 °F 4.3 °F 9.0 °F 71% 30.27 in 6.0 mi SSW 11.5 mph - 0.00 in Snow Light Snow
1:53 PM 18.0 °F 6.9 °F 10.0 °F 71% 30.25 in 10.0 mi South 9.2 mph - 0.00 in   Overcast
2:53 PM 18.0 °F 9.8 °F 10.0 °F 71% 30.22 in 10.0 mi SSW 5.8 mph - 0.00 in   Overcast
3:27 PM 17.1 °F 5.0 °F 9.0 °F 71% 30.18 in 2.5 mi SW 10.4 mph - 0.00 in Snow Light Snow
3:31 PM 17.1 °F 6.6 °F 9.0 °F 71% 30.18 in 1.2 mi SW 8.1 mph - 0.00 in Snow Light Snow
3:53 PM 15.1 °F 2.5 °F 10.9 °F 84% 30.22 in 0.8 mi WSW 10.4 mph - 0.01 in Snow Light Snow
4:53 PM 15.1 °F 6.4 °F 12.0 °F 88% 30.21 in 1.0 mi SW 5.8 mph - 0.02 in Snow Light Snow
5:20 PM 16.0 °F 7.4 °F 10.9 °F 81% 30.17 in 2.0 mi SSW 5.8 mph - 0.00 in Snow Light Snow
5:32 PM 16.0 °F 6.3 °F 10.9 °F 81% 30.17 in 5.0 mi South 6.9 mph - 0.00 in Snow Light Snow
5:39 PM 16.0 °F 7.4 °F 10.9 °F 81% 30.16 in 8.0 mi South 5.8 mph - 0.00 in   Overcast
5:53 PM 16.0 °F 6.3 °F 10.9 °F 81% 30.21 in 8.0 mi South 6.9 mph - 0.00 in Snow Light Snow
6:00 PM 16.0 °F 7.4 °F 10.9 °F 81% 30.16 in 1.8 mi South 5.8 mph - 0.00 in Snow Light Snow
6:02 PM 16.0 °F 7.4 °F 10.9 °F 81% 30.16 in 1.2 mi South 5.8 mph - 0.00 in Snow Light Snow
6:24 PM 15.1 °F 7.7 °F 12.0 °F 88% 30.16 in 2.0 mi SSE 4.6 mph - 0.00 in Snow Light Snow
6:32 PM 15.1 °F 6.4 °F 12.0 °F 88% 30.17 in 3.0 mi SSE 5.8 mph - 0.00 in Snow Light Snow
6:53 PM 15.1 °F 7.7 °F 10.9 °F 84% 30.22 in 3.0 mi SSE 4.6 mph - 0.00 in Snow Light Snow
7:06 PM 15.1 °F 6.4 °F 10.9 °F 84% 30.16 in 7.0 mi SSE 5.8 mph - 0.00 in   Overcast
7:53 PM 15.1 °F 5.2 °F 10.9 °F 84% 30.21 in 9.0 mi South 6.9 mph - 0.00 in   Overcast
8:53 PM 15.1 °F 7.7 °F 10.9 °F 84% 30.20 in 8.0 mi South 4.6 mph - N/A   Overcast
9:53 PM 14.0 °F 6.5 °F 10.0 °F 84% 30.19 in 7.0 mi SSW 4.6 mph - 0.01 in   Overcast
10:53 PM 12.9 °F 5.2 °F 9.0 °F 84% 30.19 in 9.0 mi South 4.6 mph - N/A   Overcast
11:53 PM 12.9 °F 5.2 °F 10.0 °F 88% 30.17 in 6.0 mi SE 4.6 mph - 0.00 in Snow Light Snow